�N����,����,�~����,�C��,���x,�C��,����,���ϕ���,�ő�u�ԕ���,�ő厞����,���˗�,�I�_���x,�n�����x,�ő啗���N��,DTYPE
"23/09/10","00:10",0.0,23.3,85.4,1005.2,336.4,2.0,3.3,329.9,0.00,20.8,25.0,"00:06:24",1
"23/09/10","00:20",0.0,23.4,84.7,1005.2,329.7,2.0,2.9,330.6,0.00,20.7,24.7,"00:10:24",1
"23/09/10","00:30",0.0,23.4,84.0,1005.2,312.1,1.3,3.2,317.3,0.00,20.6,24.9,"00:21:28",1
"23/09/10","00:40",0.0,23.3,84.0,1005.2,311.5,1.5,2.9,339.4,0.00,20.5,24.7,"00:34:08",1
"23/09/10","00:50",0.0,23.2,84.3,1005.0,314.9,1.6,2.9,339.9,0.00,20.4,24.8,"00:48:16",1
"23/09/10","01:00",0.0,23.1,84.6,1005.0,337.1,2.0,3.3,341.8,0.00,20.4,24.8,"00:52:00",1
"23/09/10","01:10",0.0,23.1,84.9,1005.5,335.8,1.8,3.3,329.7,0.00,20.5,24.7,"01:08:08",1
"23/09/10","01:20",0.0,22.9,85.3,1005.2,337.6,1.7,2.9,331.1,0.00,20.3,24.5,"01:12:16",1
"23/09/10","01:30",0.0,22.8,85.7,1005.0,334.0,1.6,2.8,334.4,0.00,20.3,24.7,"01:28:16",1
"23/09/10","01:40",0.0,22.8,85.9,1005.2,334.4,1.6,2.9,352.4,0.00,20.4,24.7,"01:32:16",1
"23/09/10","01:50",0.0,22.8,86.0,1005.2,304.6,1.3,2.8,339.2,0.00,20.4,24.5,"01:49:20",1
"23/09/10","02:00",0.0,22.8,86.0,1005.0,316.2,1.5,2.7,327.8,0.00,20.4,24.5,"01:59:20",1
"23/09/10","02:10",0.0,22.8,85.9,1005.5,314.6,1.5,2.7,330.4,0.00,20.4,24.4,"02:00:32",1
"23/09/10","02:20",0.0,22.7,85.8,1005.0,303.4,1.3,3.5,310.9,0.00,20.2,24.6,"02:12:48",1
"23/09/10","02:30",0.0,22.7,85.8,1005.5,303.4,1.1,2.0,328.9,0.00,20.2,24.4,"02:20:56",1
"23/09/10","02:40",0.0,22.6,85.9,1005.0,301.5,1.2,2.6,338.4,0.00,20.2,24.5,"02:37:28",1
"23/09/10","02:50",0.0,22.5,86.1,1005.0,323.9,1.5,2.6,333.7,0.00,20.1,24.6,"02:46:00",1
"23/09/10","03:00",0.0,22.5,86.2,1005.2,323.1,1.5,2.7,334.9,0.00,20.1,24.4,"02:55:28",1
"23/09/10","03:10",0.0,22.5,86.4,1005.0,327.7,2.0,3.4,330.7,0.00,20.2,24.5,"03:06:32",1
"23/09/10","03:20",0.0,22.6,86.3,1005.2,317.9,1.7,3.1,329.1,0.00,20.2,24.6,"03:16:16",1
"23/09/10","03:30",0.0,22.5,86.5,1005.7,306.0,1.1,2.5,321.5,0.00,20.2,24.3,"03:28:40",1
"23/09/10","03:40",0.0,22.6,86.8,1005.2,311.0,1.7,3.2,332.8,0.00,20.3,24.5,"03:38:56",1
"23/09/10","03:50",0.0,22.6,86.7,1005.0,322.4,1.7,2.7,314.9,0.00,20.3,24.3,"03:48:56",1
"23/09/10","04:00",0.0,22.8,86.4,1005.5,322.1,2.1,3.4,323.9,0.00,20.5,24.3,"03:51:20",1
"23/09/10","04:10",0.0,22.6,86.1,1005.5,310.5,1.3,2.5,331.3,0.00,20.2,24.4,"04:01:44",1
"23/09/10","04:20",0.0,22.5,86.0,1005.5,305.9,1.2,2.1,322.6,0.00,20.1,24.4,"04:16:00",1
"23/09/10","04:30",0.0,22.3,86.0,1006.0,327.5,1.2,2.2,332.9,0.00,19.9,24.4,"04:24:00",1
"23/09/10","04:40",0.0,22.2,86.3,1005.2,338.1,0.8,1.4,332.5,0.00,19.8,24.4,"04:33:12",1
"23/09/10","04:50",0.0,22.1,86.7,1005.5,336.2,1.0,1.4,349.1,0.00,19.8,24.3,"04:44:08",1
"23/09/10","05:00",0.0,21.8,87.3,1005.2,318.7,1.1,1.3,319.7,0.00,19.6,24.2,"04:52:16",1
"23/09/10","05:10",0.0,21.7,88.0,1005.2,305.8,1.3,2.5,323.8,0.00,19.7,24.2,"05:04:00",1
"23/09/10","05:20",0.0,21.7,88.4,1005.5,310.1,1.3,1.8,323.8,0.00,19.7,24.2,"05:17:44",1
"23/09/10","05:30",0.0,21.7,88.6,1006.0,311.7,1.2,1.9,324.2,0.00,19.8,24.3,"05:23:12",1
"23/09/10","05:40",0.0,21.8,88.7,1006.0,308.4,1.2,2.1,314.9,0.00,19.9,24.2,"05:36:40",1
"23/09/10","05:50",0.0,21.8,88.8,1005.7,323.4,1.1,1.8,337.4,0.00,19.9,24.2,"05:40:08",1
"23/09/10","06:00",0.0,21.8,89.0,1006.4,286.0,1.0,1.7,270.2,0.00,19.9,24.1,"05:57:12",1
"23/09/10","06:10",0.0,21.9,89.1,1006.0,298.3,1.1,1.8,314.6,0.00,20.1,24.1,"06:09:28",1
"23/09/10","06:20",0.0,22.2,89.0,1006.2,311.0,1.5,2.5,343.0,0.00,20.3,24.2,"06:14:16",1
"23/09/10","06:30",0.0,22.5,88.5,1006.2,300.7,1.0,1.7,323.6,0.02,20.5,24.0,"06:20:40",1
"23/09/10","06:40",0.0,23.1,87.9,1006.2,298.3,1.0,1.8,311.8,0.04,21.0,24.2,"06:37:44",1
"23/09/10","06:50",0.0,23.7,86.9,1006.2,281.0,1.0,2.2,240.4,0.06,21.4,24.2,"06:44:08",1
"23/09/10","07:00",0.0,24.6,85.7,1006.0,300.8,0.7,1.9,306.9,0.06,22.1,24.1,"06:51:36",1
"23/09/10","07:10",0.0,25.2,84.1,1006.0,314.4,0.7,1.3,299.2,0.07,22.4,24.1,"07:01:52",1
"23/09/10","07:20",0.0,26.4,82.1,1005.7,18.3,0.3,1.0,352.5,0.09,23.1,24.0,"07:12:08",1
"23/09/10","07:30",0.0,27.4,79.5,1005.5,26.0,0.3,0.9,4.9,0.12,23.6,24.2,"07:22:56",1
"23/09/10","07:40",0.0,27.6,75.9,1005.2,31.4,0.3,1.4,240.3,0.09,23.0,24.1,"07:39:52",1
"23/09/10","07:50",0.0,27.7,75.2,1004.8,297.7,0.6,2.0,251.5,0.15,22.9,24.1,"07:42:48",1
"23/09/10","08:00",0.0,28.0,74.8,1005.0,315.5,0.6,1.4,246.2,0.18,23.1,24.3,"07:52:56",1
"23/09/10","08:10",0.0,28.7,73.6,1005.5,342.7,0.5,1.1,213.0,0.21,23.6,24.1,"08:01:04",1
"23/09/10","08:20",0.0,29.3,71.7,1006.0,166.7,0.5,1.3,202.6,0.23,23.7,24.2,"08:15:28",1
"23/09/10","08:30",0.0,29.7,70.5,1006.2,156.4,0.8,1.9,199.7,0.25,23.8,24.2,"08:21:44",1
"23/09/10","08:40",0.0,30.3,68.5,1006.9,101.3,0.8,2.7,77.6,0.27,23.9,24.2,"08:36:40",1
"23/09/10","08:50",0.0,30.6,68.4,1006.4,128.0,1.0,2.1,86.7,0.29,24.2,24.2,"08:43:12",1
"23/09/10","09:00",0.0,30.7,66.2,1006.7,113.4,1.0,2.6,78.3,0.30,23.7,24.3,"08:56:24",1
"23/09/10","09:10",0.0,31.0,65.9,1006.9,120.3,1.0,2.1,126.4,0.32,23.9,24.3,"09:03:52",1
"23/09/10","09:20",0.0,31.2,65.3,1006.9,65.6,0.8,2.0,190.5,0.32,24.0,24.3,"09:11:04",1
"23/09/10","09:30",0.0,31.3,63.4,1007.1,99.4,1.0,2.2,103.7,0.35,23.6,24.5,"09:22:24",1
"23/09/10","09:40",0.0,31.4,64.2,1006.7,106.8,1.1,3.5,72.1,0.37,23.9,24.4,"09:32:56",1
"23/09/10","09:50",0.0,31.4,62.8,1006.9,54.9,1.1,2.4,26.8,0.34,23.5,24.6,"09:48:56",1
"23/09/10","10:00",0.0,31.7,63.7,1007.1,132.1,1.2,3.3,175.5,0.43,24.0,24.7,"09:56:32",1
"23/09/10","10:10",0.0,31.8,63.7,1007.4,138.1,1.2,2.7,170.7,0.43,24.1,24.7,"10:00:16",1
"23/09/10","10:20",0.0,31.9,63.0,1006.9,128.2,1.2,2.6,87.5,0.45,24.0,24.8,"10:15:20",1
"23/09/10","10:30",0.0,32.3,62.2,1006.9,163.0,1.1,3.7,222.8,0.48,24.2,24.8,"10:22:48",1
"23/09/10","10:40",0.0,32.4,61.4,1007.4,163.0,1.1,2.5,203.6,0.43,24.1,24.8,"10:39:20",1
"23/09/10","10:50",0.0,32.7,61.9,1007.1,123.3,1.2,3.3,147.3,0.50,24.5,25.0,"10:43:12",1
"23/09/10","11:00",0.0,32.6,60.6,1006.9,56.1,1.2,4.3,210.5,0.43,24.0,25.0,"10:59:20",1
"23/09/10","11:10",0.0,32.5,60.5,1006.9,156.2,1.3,2.6,207.4,0.44,23.9,25.1,"11:02:08",1
"23/09/10","11:20",0.0,32.2,63.8,1006.9,166.3,0.6,2.4,121.8,0.26,24.5,25.1,"11:15:36",1
"23/09/10","11:30",0.0,33.1,61.5,1006.2,145.6,1.2,2.7,181.4,0.58,24.7,25.2,"11:26:32",1
"23/09/10","11:40",0.0,32.6,59.7,1006.7,138.3,1.1,2.1,201.4,0.26,23.8,25.4,"11:32:48",1
"23/09/10","11:50",0.0,32.9,58.5,1006.2,8.5,0.7,2.2,357.6,0.31,23.7,25.3,"11:42:08",1
"23/09/10","12:00",0.0,32.1,60.1,1006.0,28.4,0.7,1.9,130.9,0.11,23.4,25.7,"11:53:20",1
"23/09/10","12:10",0.0,32.0,62.0,1005.5,100.0,0.6,1.6,94.5,0.12,23.8,25.5,"12:09:20",1
"23/09/10","12:20",0.0,31.5,63.5,1005.2,155.9,1.0,3.1,129.3,0.14,23.8,25.5,"12:13:20",1
"23/09/10","12:30",0.0,31.8,61.6,1005.2,196.4,0.6,1.9,227.2,0.13,23.5,25.4,"12:29:36",1
"23/09/10","12:40",0.0,31.8,61.8,1004.8,266.4,0.6,1.4,192.8,0.09,23.6,25.7,"12:30:48",1
"23/09/10","12:50",0.0,31.3,62.4,1005.0,170.5,0.7,1.7,219.9,0.08,23.3,25.7,"12:43:12",1
"23/09/10","13:00",0.0,31.1,62.6,1004.1,121.1,1.1,2.2,185.5,0.04,23.2,25.8,"12:51:28",1
"23/09/10","13:10",0.0,30.7,63.5,1003.8,137.8,1.1,2.6,139.2,0.07,23.0,25.5,"13:07:20",1
"23/09/10","13:20",0.0,30.8,65.6,1003.6,115.8,1.1,2.6,126.5,0.09,23.7,25.7,"13:14:16",1
"23/09/10","13:30",0.0,31.0,67.1,1003.6,89.9,1.1,2.4,113.9,0.20,24.2,25.6,"13:20:32",1
"23/09/10","13:40",0.0,32.8,64.1,1004.3,109.1,1.2,3.4,149.7,0.51,25.2,25.5,"13:39:52",1
"23/09/10","13:50",0.0,33.4,62.2,1005.0,96.1,1.2,3.7,107.0,0.47,25.2,25.5,"13:48:24",1
"23/09/10","14:00",0.0,32.7,62.8,1004.8,95.0,1.2,3.9,99.0,0.29,24.7,25.7,"13:52:48",1
"23/09/10","14:10",0.0,32.3,62.1,1004.8,91.5,1.5,3.3,54.1,0.34,24.2,25.7,"14:02:24",1
"23/09/10","14:20",0.0,32.9,60.0,1005.2,76.7,1.0,2.5,45.2,0.39,24.1,25.8,"14:19:12",1
"23/09/10","14:30",0.0,33.1,57.3,1005.0,79.2,1.0,2.2,122.2,0.28,23.6,25.9,"14:26:32",1
"23/09/10","14:40",0.0,32.2,60.9,1004.8,110.5,1.0,2.8,228.9,0.17,23.7,26.1,"14:30:48",1
"23/09/10","14:50",0.0,32.5,60.3,1004.8,148.3,1.6,3.7,74.6,0.26,23.9,26.0,"14:40:24",1
"23/09/10","15:00",0.0,32.5,60.5,1004.5,149.3,1.6,3.9,158.8,0.28,23.9,26.0,"14:56:08",1
"23/09/10","15:10",0.0,33.3,58.4,1004.8,94.1,1.2,3.2,80.0,0.33,24.1,26.0,"15:01:12",1
"23/09/10","15:20",0.0,33.3,58.2,1004.8,99.6,1.1,2.7,152.8,0.30,24.0,26.1,"15:10:08",1
"23/09/10","15:30",0.0,32.7,59.1,1004.8,110.8,1.3,3.2,123.7,0.22,23.7,26.1,"15:24:24",1
"23/09/10","15:40",0.0,32.4,58.1,1004.3,98.0,1.1,2.6,125.6,0.19,23.1,26.1,"15:36:00",1
"23/09/10","15:50",0.0,31.4,59.8,1004.3,128.7,1.2,2.7,136.8,0.08,22.7,26.1,"15:47:04",1
"23/09/10","16:00",0.0,30.4,62.7,1003.8,128.9,1.2,2.8,95.4,0.01,22.5,25.9,"15:52:08",1
"23/09/10","16:10",0.0,30.1,63.8,1003.8,112.0,1.0,2.6,127.0,0.01,22.5,26.0,"16:03:04",1
"23/09/10","16:20",0.0,30.0,65.3,1003.1,36.5,0.6,2.0,20.5,0.01,22.8,26.3,"16:14:08",1
"23/09/10","16:30",0.0,29.8,66.9,1002.6,65.4,0.7,1.8,7.9,0.01,23.0,26.2,"16:23:12",1
"23/09/10","16:40",0.0,29.5,67.7,1002.4,35.1,0.7,1.7,49.9,0.01,22.9,26.1,"16:36:00",1
"23/09/10","16:50",0.0,29.3,68.5,1002.4,6.5,0.6,1.7,37.3,0.01,22.9,26.1,"16:48:32",1
"23/09/10","17:00",0.0,29.1,69.8,1002.4,356.5,0.6,1.3,355.5,0.01,23.1,25.8,"16:56:40",1
"23/09/10","17:10",0.0,29.0,72.3,1002.4,2.8,0.5,1.1,350.6,0.01,23.5,26.3,"17:00:08",1
"23/09/10","17:20",0.0,28.7,73.9,1002.4,354.6,0.3,1.2,339.0,0.00,23.6,26.1,"17:15:44",1
"23/09/10","17:30",0.0,28.4,74.3,1002.9,21.2,0.3,1.0,3.7,0.00,23.4,26.0,"17:25:44",1
"23/09/10","17:40",0.0,28.4,74.0,1002.9,359.9,0.5,2.1,30.9,0.00,23.4,26.0,"17:30:02",1
"23/09/10","17:50",0.0,28.6,73.3,1003.6,6.5,0.7,2.1,345.0,0.00,23.4,25.9,"17:44:16",1
"23/09/10","18:00",0.0,28.5,74.6,1002.9,355.8,0.6,1.3,346.4,0.00,23.6,26.2,"17:53:52",1
"23/09/10","18:10",0.0,27.8,77.4,1003.4,322.8,0.8,1.8,338.0,0.00,23.5,26.1,"18:05:44",1
"23/09/10","18:20",0.0,27.6,78.6,1003.8,194.6,1.2,3.3,122.2,0.00,23.6,25.8,"18:12:16",1
"23/09/10","18:30",0.0,27.3,80.2,1003.6,321.9,1.6,2.6,333.3,0.00,23.6,26.1,"18:24:08",1
"23/09/10","18:40",0.0,26.7,82.2,1004.1,343.1,1.6,2.7,321.4,0.00,23.5,25.8,"18:31:36",1
"23/09/10","18:50",0.0,26.3,83.6,1004.1,10.1,1.2,2.6,56.3,0.00,23.3,25.9,"18:43:04",1
"23/09/10","19:00",0.0,26.2,84.4,1004.5,320.0,0.7,1.7,346.2,0.00,23.4,25.9,"18:50:02",1
"23/09/10","19:10",0.0,26.1,85.3,1004.8,273.9,1.7,3.3,234.3,0.00,23.5,25.9,"19:06:32",1
"23/09/10","19:20",0.0,26.0,85.4,1005.2,193.9,1.1,2.6,236.4,0.00,23.4,25.8,"19:10:02",1
"23/09/10","19:30",0.0,25.7,86.0,1005.5,198.0,1.1,3.1,227.7,0.00,23.2,25.7,"19:20:24",1
"23/09/10","19:40",0.0,25.7,86.5,1005.5,243.8,0.7,1.8,243.3,0.00,23.3,25.8,"19:31:28",1
"23/09/10","19:50",0.0,25.5,86.7,1005.2,287.0,0.7,1.7,334.3,0.00,23.2,25.8,"19:48:40",1
"23/09/10","20:00",0.0,25.4,86.9,1006.0,323.6,1.2,2.5,310.1,0.00,23.1,25.8,"19:54:08",1
"23/09/10","20:10",0.0,25.4,87.1,1005.5,322.4,1.3,2.0,345.2,0.00,23.1,25.7,"20:01:44",1
"23/09/10","20:20",0.0,25.3,87.3,1006.2,327.0,0.8,1.6,340.8,0.00,23.1,25.8,"20:14:48",1
"23/09/10","20:30",0.2,25.3,87.5,1006.0,319.3,0.8,1.4,341.0,0.00,23.1,25.7,"20:28:50",1
"23/09/10","20:40",0.6,25.3,88.1,1005.2,343.4,1.2,2.1,340.9,0.00,23.2,25.9,"20:39:04",1
"23/09/10","20:50",0.4,25.0,88.7,1005.0,316.7,0.8,1.9,350.4,0.00,23.0,25.6,"20:42:48",1
"23/09/10","21:00",0.2,24.8,89.5,1005.2,237.3,1.0,1.8,219.9,0.00,23.0,25.5,"20:56:16",1
"23/09/10","21:10",0.4,24.7,90.1,1005.5,205.3,0.8,1.7,203.5,0.00,23.0,25.6,"21:00:40",1
"23/09/10","21:20",0.2,24.6,90.6,1005.5,322.3,0.7,1.4,352.0,0.00,23.0,25.5,"21:17:20",1
"23/09/10","21:30",0.0,24.6,91.0,1005.2,336.6,0.8,1.7,341.3,0.00,23.1,25.6,"21:21:52",1
"23/09/10","21:40",0.0,24.5,91.4,1005.5,330.3,1.0,1.6,340.2,0.00,23.0,25.7,"21:32:08",1
"23/09/10","21:50",0.0,24.4,91.7,1005.2,342.5,0.7,1.4,350.3,0.00,23.0,25.2,"21:42:40",1
"23/09/10","22:00",0.0,24.3,91.8,1006.0,302.5,0.5,1.1,354.6,0.00,22.9,25.4,"21:50:08",1
"23/09/10","22:10",0.0,24.2,92.0,1005.0,347.1,0.3,1.0,337.8,0.00,22.9,25.4,"22:07:20",1
"23/09/10","22:20",0.0,24.1,92.3,1006.0,253.9,0.5,1.2,228.6,0.00,22.8,25.4,"22:17:52",1
"23/09/10","22:30",0.0,24.1,92.4,1005.5,263.8,0.3,1.3,261.6,0.00,22.8,25.2,"22:22:24",1
"23/09/10","22:40",0.0,24.1,92.7,1005.2,352.3,0.3,1.1,3.4,0.00,22.9,25.5,"22:39:52",1
"23/09/10","22:50",0.0,24.1,92.8,1005.7,3.5,0.3,0.9,355.0,0.00,22.9,25.6,"22:41:12",1
"23/09/10","23:00",0.0,24.2,93.0,1006.2,348.3,0.8,1.7,351.2,0.00,23.0,25.4,"22:57:28",1
"23/09/10","23:10",0.2,24.2,93.1,1006.0,342.0,0.6,1.1,342.9,0.00,23.1,25.5,"23:02:32",1
"23/09/10","23:20",0.0,24.2,93.2,1006.0,322.5,0.5,1.4,344.0,0.00,23.1,25.3,"23:15:04",1
"23/09/10","23:30",0.0,24.3,93.4,1005.5,340.2,0.6,1.1,349.2,0.00,23.2,25.2,"23:26:00",1
"23/09/10","23:40",0.0,24.2,93.5,1005.7,346.5,0.6,1.0,343.7,0.00,23.1,25.4,"23:35:20",1
"23/09/10","23:50",0.0,24.0,93.6,1005.5,296.1,0.5,1.0,316.1,0.00,22.9,25.2,"23:41:04",1
"23/09/10","24:00",0.0,24.1,93.8,1005.5,299.2,0.3,1.1,340.4,0.00,23.1,25.2,"23:59:36",1
